Time,TemperatureF,DewpointF,PressureIn,WindDirection,WindDirectionDegrees,WindSpeedMPH,WindSpeedGustMPH,Humidity,HourlyPrecipIn,Conditions,Clouds,dailyrainin,SoftwareType,DateUTC
2013-04-28 00:00:00,52.9,41.9,30.32,East,94,0.0,1.0,66,0.00,,,0.00,meteohub,2013-04-28 04:00:00,
2013-04-28 00:01:00,52.7,41.7,30.32,East,94,0.0,1.0,66,0.00,,,0.00,meteohub,2013-04-28 04:01:00,
2013-04-28 00:06:00,52.2,41.5,30.32,East,94,0.0,1.0,67,0.00,,,0.00,meteohub,2013-04-28 04:06:00,
2013-04-28 00:11:00,51.6,41.4,30.32,East,94,0.0,1.0,68,0.00,,,0.00,meteohub,2013-04-28 04:11:00,
2013-04-28 00:16:00,51.3,41.4,30.32,East,94,0.0,0.0,69,0.00,,,0.00,meteohub,2013-04-28 04:16:00,
2013-04-28 00:21:00,51.1,41.7,30.32,East,95,0.0,0.0,70,0.00,,,0.00,meteohub,2013-04-28 04:21:00,
2013-04-28 00:26:00,50.7,41.4,30.32,East,94,0.0,0.0,70,0.00,,,0.00,meteohub,2013-04-28 04:26:00,
2013-04-28 00:31:00,50.7,41.7,30.32,East,94,0.0,0.0,71,0.00,,,0.00,meteohub,2013-04-28 04:31:00,
2013-04-28 00:36:00,50.7,41.7,30.32,East,94,0.0,0.0,71,0.00,,,0.00,meteohub,2013-04-28 04:36:00,
2013-04-28 00:41:00,51.3,42.3,30.32,East,94,0.0,0.0,71,0.00,,,0.00,meteohub,2013-04-28 04:41:00,
2013-04-28 00:46:00,51.1,42.1,30.32,East,94,0.0,1.0,71,0.00,,,0.00,meteohub,2013-04-28 04:46:00,
2013-04-28 00:51:00,51.3,42.3,30.32,East,94,0.0,1.0,71,0.00,,,0.00,meteohub,2013-04-28 04:51:00,
2013-04-28 00:56:00,51.3,42.3,30.32,East,94,0.0,1.0,71,0.00,,,0.00,meteohub,2013-04-28 04:56:00,
2013-04-28 01:01:00,51.6,42.1,30.32,East,95,0.0,0.0,70,0.00,,,0.00,meteohub,2013-04-28 05:01:00,
2013-04-28 01:06:00,51.4,42.4,30.32,East,94,0.0,1.0,71,0.00,,,0.00,meteohub,2013-04-28 05:06:00,
2013-04-28 01:11:00,51.3,42.3,30.32,East,95,0.0,1.0,71,0.00,,,0.00,meteohub,2013-04-28 05:11:00,
2013-04-28 01:16:00,51.1,42.8,30.32,East,94,0.0,1.0,73,0.00,,,0.00,meteohub,2013-04-28 05:16:00,
2013-04-28 01:21:00,50.9,42.6,30.32,East,95,0.0,0.0,73,0.00,,,0.00,meteohub,2013-04-28 05:21:00,
2013-04-28 01:26:00,50.9,42.6,30.32,East,94,1.0,0.0,73,0.00,,,0.00,meteohub,2013-04-28 05:26:00,
2013-04-28 01:31:00,50.7,42.8,30.32,East,94,0.0,1.0,74,0.00,,,0.00,meteohub,2013-04-28 05:31:00,
2013-04-28 01:36:00,50.4,42.4,30.31,East,95,0.0,1.0,74,0.00,,,0.00,meteohub,2013-04-28 05:36:00,
2013-04-28 01:41:00,50.2,42.6,30.31,East,94,0.0,1.0,75,0.00,,,0.00,meteohub,2013-04-28 05:41:00,
2013-04-28 01:46:00,50.5,42.6,30.31,East,94,0.0,1.0,74,0.00,,,0.00,meteohub,2013-04-28 05:46:00,
2013-04-28 01:51:00,50.7,42.8,30.31,East,94,0.0,1.0,74,0.00,,,0.00,meteohub,2013-04-28 05:51:00,
2013-04-28 01:56:00,50.7,42.8,30.31,East,94,0.0,1.0,74,0.00,,,0.00,meteohub,2013-04-28 05:56:00,
2013-04-28 02:01:00,50.4,42.4,30.31,East,94,0.0,1.0,74,0.00,,,0.00,meteohub,2013-04-28 06:01:00,
2013-04-28 02:06:00,50.0,42.4,30.31,East,94,0.0,1.0,75,0.00,,,0.00,meteohub,2013-04-28 06:06:00,
2013-04-28 02:11:00,50.0,42.8,30.31,East,94,0.0,1.0,76,0.00,,,0.00,meteohub,2013-04-28 06:11:00,
2013-04-28 02:16:00,49.8,42.6,30.31,East,94,0.0,0.0,76,0.00,,,0.00,meteohub,2013-04-28 06:16:00,
2013-04-28 02:21:00,49.6,42.4,30.31,East,94,0.0,0.0,76,0.00,,,0.00,meteohub,2013-04-28 06:21:00,
2013-04-28 02:26:00,49.3,42.8,30.31,East,94,0.0,0.0,78,0.00,,,0.00,meteohub,2013-04-28 06:26:00,
2013-04-28 02:31:00,48.9,42.4,30.31,East,94,0.0,0.0,78,0.00,,,0.00,meteohub,2013-04-28 06:31:00,
2013-04-28 02:36:00,48.9,42.6,30.31,East,94,0.0,0.0,79,0.00,,,0.00,meteohub,2013-04-28 06:36:00,
2013-04-28 02:41:00,48.9,42.6,30.31,East,94,0.0,0.0,79,0.00,,,0.00,meteohub,2013-04-28 06:41:00,
2013-04-28 02:46:00,48.7,42.4,30.31,East,94,0.0,0.0,79,0.00,,,0.00,meteohub,2013-04-28 06:46:00,
2013-04-28 02:51:00,48.4,42.3,30.31,East,94,0.0,0.0,79,0.00,,,0.00,meteohub,2013-04-28 06:51:00,
2013-04-28 02:56:00,48.0,41.9,30.31,East,94,0.0,0.0,79,0.00,,,0.00,meteohub,2013-04-28 06:56:00,
2013-04-28 03:01:00,48.0,42.4,30.31,East,94,0.0,0.0,81,0.00,,,0.00,meteohub,2013-04-28 07:01:00,
2013-04-28 03:06:00,47.8,42.3,30.31,East,94,0.0,0.0,81,0.00,,,0.00,meteohub,2013-04-28 07:06:00,
2013-04-28 03:11:00,47.8,42.3,30.31,East,94,0.0,0.0,81,0.00,,,0.00,meteohub,2013-04-28 07:11:00,
2013-04-28 03:16:00,47.7,42.4,30.30,East,94,0.0,0.0,82,0.00,,,0.00,meteohub,2013-04-28 07:16:00,
2013-04-28 03:21:00,47.8,42.6,30.29,East,94,0.0,0.0,82,0.00,,,0.00,meteohub,2013-04-28 07:21:00,
2013-04-28 03:26:00,47.7,42.4,30.29,East,94,0.0,0.0,82,0.00,,,0.00,meteohub,2013-04-28 07:26:00,
2013-04-28 03:31:00,47.7,42.4,30.29,East,94,0.0,0.0,82,0.00,,,0.00,meteohub,2013-04-28 07:31:00,
2013-04-28 03:36:00,47.7,42.1,30.29,East,94,0.0,0.0,81,0.00,,,0.00,meteohub,2013-04-28 07:36:00,
2013-04-28 03:41:00,47.7,42.4,30.29,East,94,0.0,0.0,82,0.00,,,0.00,meteohub,2013-04-28 07:41:00,
2013-04-28 03:46:00,47.5,42.3,30.28,East,94,0.0,0.0,82,0.00,,,0.00,meteohub,2013-04-28 07:46:00,
2013-04-28 03:51:00,47.5,41.9,30.28,East,94,0.0,0.0,81,0.00,,,0.00,meteohub,2013-04-28 07:51:00,
2013-04-28 03:56:00,47.1,41.9,30.28,East,94,0.0,0.0,82,0.00,,,0.00,meteohub,2013-04-28 07:56:00,
2013-04-28 04:01:00,46.9,41.7,30.28,East,94,0.0,0.0,82,0.00,,,0.00,meteohub,2013-04-28 08:01:00,
2013-04-28 04:06:00,46.9,42.1,30.28,East,94,0.0,0.0,83,0.00,,,0.00,meteohub,2013-04-28 08:06:00,
2013-04-28 04:11:00,46.8,41.9,30.28,East,94,0.0,0.0,83,0.00,,,0.00,meteohub,2013-04-28 08:11:00,
2013-04-28 04:16:00,46.6,42.1,30.28,East,94,0.0,0.0,84,0.00,,,0.00,meteohub,2013-04-28 08:16:00,
2013-04-28 04:21:00,46.2,41.7,30.29,East,94,0.0,0.0,84,0.00,,,0.00,meteohub,2013-04-28 08:21:00,
2013-04-28 04:26:00,46.2,41.9,30.29,East,94,0.0,0.0,85,0.00,,,0.00,meteohub,2013-04-28 08:26:00,
2013-04-28 04:31:00,46.0,41.5,30.29,East,94,0.0,0.0,84,0.00,,,0.00,meteohub,2013-04-28 08:31:00,
2013-04-28 04:36:00,45.7,41.4,30.29,East,94,0.0,0.0,85,0.00,,,0.00,meteohub,2013-04-28 08:36:00,
2013-04-28 04:41:00,45.5,41.5,30.29,East,94,0.0,0.0,86,0.00,,,0.00,meteohub,2013-04-28 08:41:00,
2013-04-28 04:46:00,45.1,41.5,30.29,East,94,0.0,0.0,87,0.00,,,0.00,meteohub,2013-04-28 08:46:00,
2013-04-28 04:51:00,45.0,41.4,30.29,East,94,0.0,0.0,87,0.00,,,0.00,meteohub,2013-04-28 08:51:00,
2013-04-28 04:56:00,44.8,41.4,30.29,East,94,0.0,0.0,88,0.00,,,0.00,meteohub,2013-04-28 08:56:00,
2013-04-28 05:01:00,44.6,41.2,30.29,East,94,0.0,0.0,88,0.00,,,0.00,meteohub,2013-04-28 09:01:00,
2013-04-28 05:07:00,44.4,41.2,30.29,East,94,0.0,0.0,88,0.00,,,0.00,meteohub,2013-04-28 09:07:00,
2013-04-28 05:12:00,44.2,41.2,30.28,East,94,0.0,0.0,89,0.00,,,0.00,meteohub,2013-04-28 09:12:00,
2013-04-28 05:17:00,44.2,41.2,30.28,East,94,0.0,0.0,89,0.00,,,0.00,meteohub,2013-04-28 09:17:00,
2013-04-28 05:22:00,44.1,41.0,30.28,East,95,0.0,0.0,89,0.00,,,0.00,meteohub,2013-04-28 09:22:00,
2013-04-28 05:27:00,44.1,41.4,30.28,East,94,0.0,0.0,90,0.00,,,0.00,meteohub,2013-04-28 09:27:00,
2013-04-28 05:32:00,44.2,41.5,30.28,East,94,0.0,0.0,90,0.00,,,0.00,meteohub,2013-04-28 09:32:00,
2013-04-28 05:37:00,44.2,41.2,30.28,East,94,0.0,0.0,89,0.00,,,0.00,meteohub,2013-04-28 09:37:00,
2013-04-28 05:42:00,44.1,41.0,30.28,East,94,0.0,0.0,89,0.00,,,0.00,meteohub,2013-04-28 09:42:00,
2013-04-28 05:47:00,43.9,41.2,30.28,East,94,0.0,0.0,90,0.00,,,0.00,meteohub,2013-04-28 09:47:00,
2013-04-28 05:52:00,43.9,41.2,30.28,East,94,0.0,0.0,90,0.00,,,0.00,meteohub,2013-04-28 09:52:00,
2013-04-28 05:57:00,43.7,41.0,30.28,East,94,0.0,0.0,90,0.00,,,0.00,meteohub,2013-04-28 09:57:00,
2013-04-28 06:02:00,43.3,40.6,30.28,East,94,0.0,0.0,90,0.00,,,0.00,meteohub,2013-04-28 10:02:00,
2013-04-28 06:07:00,43.3,40.8,30.28,East,94,0.0,0.0,91,0.00,,,0.00,meteohub,2013-04-28 10:07:00,
2013-04-28 06:12:00,43.3,40.8,30.28,East,94,0.0,0.0,91,0.00,,,0.00,meteohub,2013-04-28 10:12:00,
2013-04-28 06:17:00,43.2,40.6,30.28,East,94,0.0,0.0,91,0.00,,,0.00,meteohub,2013-04-28 10:17:00,
2013-04-28 06:22:00,43.3,41.2,30.28,East,94,0.0,0.0,92,0.00,,,0.00,meteohub,2013-04-28 10:22:00,
2013-04-28 06:27:00,43.3,40.8,30.28,East,94,0.0,0.0,91,0.00,,,0.00,meteohub,2013-04-28 10:27:00,
2013-04-28 06:32:00,43.3,41.2,30.28,East,95,0.0,0.0,92,0.00,,,0.00,meteohub,2013-04-28 10:32:00,
2013-04-28 06:37:00,43.3,41.2,30.28,East,94,0.0,0.0,92,0.00,,,0.00,meteohub,2013-04-28 10:37:00,
2013-04-28 06:42:00,43.3,40.8,30.29,East,94,0.0,0.0,91,0.00,,,0.00,meteohub,2013-04-28 10:42:00,
2013-04-28 06:47:00,43.2,41.0,30.30,East,94,0.0,0.0,92,0.00,,,0.00,meteohub,2013-04-28 10:47:00,
2013-04-28 06:52:00,43.2,41.0,30.30,East,94,0.0,0.0,92,0.00,,,0.00,meteohub,2013-04-28 10:52:00,
2013-04-28 06:57:00,43.2,41.0,30.30,East,94,0.0,0.0,92,0.00,,,0.00,meteohub,2013-04-28 10:57:00,
2013-04-28 07:02:00,43.3,41.2,30.30,East,95,0.0,0.0,92,0.00,,,0.00,meteohub,2013-04-28 11:02:00,
2013-04-28 07:07:00,43.5,41.4,30.30,East,94,0.0,0.0,92,0.00,,,0.00,meteohub,2013-04-28 11:07:00,
2013-04-28 07:12:00,43.7,41.5,30.30,East,94,0.0,0.0,92,0.00,,,0.00,meteohub,2013-04-28 11:12:00,
2013-04-28 07:17:00,44.1,41.9,30.30,East,94,0.0,0.0,92,0.00,,,0.00,meteohub,2013-04-28 11:17:00,
2013-04-28 07:22:00,44.4,42.4,30.30,East,95,0.0,0.0,93,0.00,,,0.00,meteohub,2013-04-28 11:22:00,
2013-04-28 07:27:00,45.0,42.8,30.30,East,94,0.0,0.0,92,0.00,,,0.00,meteohub,2013-04-28 11:27:00,
2013-04-28 07:32:00,45.7,43.5,30.30,East,94,0.0,0.0,92,0.00,,,0.00,meteohub,2013-04-28 11:32:00,
2013-04-28 07:37:00,46.4,44.2,30.30,East,94,0.0,0.0,92,0.00,,,0.00,meteohub,2013-04-28 11:37:00,
2013-04-28 07:42:00,47.1,44.6,30.30,East,94,0.0,0.0,91,0.00,,,0.00,meteohub,2013-04-28 11:42:00,
2013-04-28 07:47:00,47.8,45.0,30.30,East,95,0.0,0.0,90,0.00,,,0.00,meteohub,2013-04-28 11:47:00,
2013-04-28 07:52:00,48.7,44.1,30.30,East,94,0.0,0.0,84,0.00,,,0.00,meteohub,2013-04-28 11:52:00,
2013-04-28 07:57:00,50.0,44.1,30.31,SW,235,0.0,1.0,80,0.00,,,0.00,meteohub,2013-04-28 11:57:00,
2013-04-28 08:02:00,51.1,44.1,30.31,SW,225,2.0,3.0,77,0.00,,,0.00,meteohub,2013-04-28 12:02:00,
2013-04-28 08:07:00,52.0,44.2,30.31,SW,226,1.0,3.0,75,0.00,,,0.00,meteohub,2013-04-28 12:07:00,
2013-04-28 08:12:00,52.9,44.4,30.30,South,186,0.0,3.0,73,0.00,,,0.00,meteohub,2013-04-28 12:12:00,
2013-04-28 08:17:00,54.1,44.6,30.30,WSW,242,2.0,3.0,70,0.00,,,0.00,meteohub,2013-04-28 12:17:00,
2013-04-28 08:22:00,54.1,43.9,30.30,SW,228,1.0,4.0,68,0.00,,,0.00,meteohub,2013-04-28 12:22:00,
2013-04-28 08:27:00,54.7,43.5,30.30,SW,218,1.0,4.0,66,0.00,,,0.00,meteohub,2013-04-28 12:27:00,
2013-04-28 08:32:00,55.0,43.2,30.30,WSW,250,3.0,4.0,64,0.00,,,0.00,meteohub,2013-04-28 12:32:00,
2013-04-28 08:37:00,55.2,42.4,30.30,SSE,151,2.0,4.0,62,0.00,,,0.00,meteohub,2013-04-28 12:37:00,
2013-04-28 08:42:00,55.8,43.0,30.30,ESE,108,0.0,6.0,62,0.00,,,0.00,meteohub,2013-04-28 12:42:00,
2013-04-28 08:47:00,56.5,42.8,30.30,SSW,205,1.0,6.0,60,0.00,,,0.00,meteohub,2013-04-28 12:47:00,
2013-04-28 08:52:00,56.7,42.4,30.30,SSW,210,1.0,7.0,59,0.00,,,0.00,meteohub,2013-04-28 12:52:00,
2013-04-28 08:57:00,57.6,41.9,30.29,SE,146,1.0,7.0,56,0.00,,,0.00,meteohub,2013-04-28 12:57:00,
2013-04-28 09:02:00,58.5,41.4,30.29,SSE,157,2.0,7.0,53,0.00,,,0.00,meteohub,2013-04-28 13:02:00,
2013-04-28 09:07:00,58.6,42.1,30.29,SSE,151,0.0,5.0,54,0.00,,,0.00,meteohub,2013-04-28 13:07:00,
2013-04-28 09:12:00,59.5,41.9,30.29,SSE,157,1.0,5.0,52,0.00,,,0.00,meteohub,2013-04-28 13:12:00,
2013-04-28 09:17:00,59.9,41.7,30.29,WSW,238,2.0,6.0,51,0.00,,,0.00,meteohub,2013-04-28 13:17:00,
2013-04-28 09:22:00,60.1,41.4,30.29,East,96,1.0,6.0,50,0.00,,,0.00,meteohub,2013-04-28 13:22:00,
2013-04-28 09:27:00,60.4,41.7,30.29,West,277,0.0,6.0,50,0.00,,,0.00,meteohub,2013-04-28 13:27:00,
2013-04-28 09:32:00,61.5,42.3,30.29,SSE,149,2.0,5.0,49,0.00,,,0.00,meteohub,2013-04-28 13:32:00,
2013-04-28 09:37:00,62.2,42.8,30.29,SE,134,1.0,4.0,49,0.00,,,0.00,meteohub,2013-04-28 13:37:00,
2013-04-28 09:42:00,62.6,42.1,30.29,SSE,160,0.0,3.0,47,0.00,,,0.00,meteohub,2013-04-28 13:42:00,
2013-04-28 09:47:00,62.6,42.1,30.29,SSW,193,2.0,4.0,47,0.00,,,0.00,meteohub,2013-04-28 13:47:00,
2013-04-28 09:52:00,63.3,42.3,30.29,ESE,110,0.0,4.0,46,0.00,,,0.00,meteohub,2013-04-28 13:52:00,
2013-04-28 09:57:00,63.3,41.0,30.29,West,262,2.0,4.0,44,0.00,,,0.00,meteohub,2013-04-28 13:57:00,
2013-04-28 10:02:00,63.1,40.8,30.29,SSE,165,2.0,7.0,44,0.00,,,0.00,meteohub,2013-04-28 14:02:00,
2013-04-28 10:07:00,63.3,41.0,30.29,NW,314,1.0,7.0,44,0.00,,,0.00,meteohub,2013-04-28 14:07:00,
2013-04-28 10:12:00,63.9,39.0,30.29,SSE,156,2.0,7.0,40,0.00,,,0.00,meteohub,2013-04-28 14:12:00,
2013-04-28 10:17:00,63.9,40.3,30.29,SE,139,5.0,5.0,42,0.00,,,0.00,meteohub,2013-04-28 14:17:00,
2013-04-28 10:22:00,63.9,39.7,30.29,East,101,2.0,5.0,41,0.00,,,0.00,meteohub,2013-04-28 14:22:00,
2013-04-28 10:27:00,63.9,41.0,30.29,SW,225,2.0,7.0,43,0.00,,,0.00,meteohub,2013-04-28 14:27:00,
2013-04-28 10:32:00,63.7,39.6,30.29,SSE,148,0.0,7.0,41,0.00,,,0.00,meteohub,2013-04-28 14:32:00,
2013-04-28 10:37:00,63.9,41.0,30.29,SE,142,0.0,7.0,43,0.00,,,0.00,meteohub,2013-04-28 14:37:00,
2013-04-28 10:42:00,63.7,39.6,30.29,SE,129,1.0,7.0,41,0.00,,,0.00,meteohub,2013-04-28 14:42:00,
2013-04-28 10:47:00,63.9,40.3,30.29,ESE,120,2.0,5.0,42,0.00,,,0.00,meteohub,2013-04-28 14:47:00,
2013-04-28 10:52:00,64.6,42.3,30.29,WNW,283,2.0,5.0,44,0.00,,,0.00,meteohub,2013-04-28 14:52:00,
2013-04-28 10:57:00,64.8,41.7,30.29,SE,141,1.0,4.0,43,0.00,,,0.00,meteohub,2013-04-28 14:57:00,
2013-04-28 11:02:00,64.8,41.2,30.29,SE,143,1.0,4.0,42,0.00,,,0.00,meteohub,2013-04-28 15:02:00,
2013-04-28 11:07:00,64.6,40.3,30.29,ESE,113,2.0,5.0,41,0.00,,,0.00,meteohub,2013-04-28 15:07:00,
2013-04-28 11:12:00,64.2,40.1,30.29,SE,137,0.0,5.0,41,0.00,,,0.00,meteohub,2013-04-28 15:12:00,
2013-04-28 11:17:00,64.2,40.1,30.29,SE,127,2.0,8.0,41,0.00,,,0.00,meteohub,2013-04-28 15:17:00,
2013-04-28 11:22:00,64.6,41.0,30.29,ESE,105,1.0,8.0,42,0.00,,,0.00,meteohub,2013-04-28 15:22:00,
2013-04-28 11:27:00,65.1,39.6,30.29,SE,143,3.0,7.0,39,0.00,,,0.00,meteohub,2013-04-28 15:27:00,
2013-04-28 11:32:00,65.5,39.9,30.29,ESE,113,3.0,7.0,39,0.00,,,0.00,meteohub,2013-04-28 15:32:00,
2013-04-28 11:37:00,65.8,40.1,30.29,SSE,152,1.0,7.0,39,0.00,,,0.00,meteohub,2013-04-28 15:37:00,
2013-04-28 11:42:00,65.8,39.6,30.29,SE,125,2.0,7.0,38,0.00,,,0.00,meteohub,2013-04-28 15:42:00,
2013-04-28 11:47:00,65.7,39.4,30.29,SE,138,0.0,6.0,38,0.00,,,0.00,meteohub,2013-04-28 15:47:00,
2013-04-28 11:52:00,65.8,38.8,30.29,SE,143,5.0,6.0,37,0.00,,,0.00,meteohub,2013-04-28 15:52:00,
2013-04-28 11:57:00,65.7,38.7,30.29,ESE,121,0.0,7.0,37,0.00,,,0.00,meteohub,2013-04-28 15:57:00,
2013-04-28 12:02:00,65.5,37.8,30.29,East,101,6.0,7.0,36,0.00,,,0.00,meteohub,2013-04-28 16:02:00,
2013-04-28 12:07:00,65.1,37.6,30.29,SE,138,1.0,7.0,36,0.00,,,0.00,meteohub,2013-04-28 16:07:00,
2013-04-28 12:12:00,64.9,37.4,30.29,ESE,117,2.0,8.0,36,0.00,,,0.00,meteohub,2013-04-28 16:12:00,
2013-04-28 12:17:00,64.9,38.1,30.28,SSE,155,0.0,8.0,37,0.00,,,0.00,meteohub,2013-04-28 16:17:00,
2013-04-28 12:22:00,65.5,39.2,30.28,South,186,1.0,8.0,38,0.00,,,0.00,meteohub,2013-04-28 16:22:00,
2013-04-28 12:27:00,65.8,38.1,30.28,SE,146,6.0,8.0,36,0.00,,,0.00,meteohub,2013-04-28 16:27:00,
2013-04-28 12:32:00,66.0,39.0,30.28,West,276,2.0,6.0,37,0.00,,,0.00,meteohub,2013-04-28 16:32:00,
2013-04-28 12:37:00,65.7,37.9,30.28,SE,136,1.0,9.0,36,0.00,,,0.00,meteohub,2013-04-28 16:37:00,
2013-04-28 12:42:00,65.7,37.9,30.28,South,184,2.0,9.0,36,0.00,,,0.00,meteohub,2013-04-28 16:42:00,
2013-04-28 12:47:00,65.5,37.0,30.28,SE,143,2.0,9.0,35,0.00,,,0.00,meteohub,2013-04-28 16:47:00,
2013-04-28 12:52:00,65.5,38.5,30.28,SE,136,1.0,4.0,37,0.00,,,0.00,meteohub,2013-04-28 16:52:00,
2013-04-28 12:57:00,65.1,38.1,30.28,SSW,208,0.0,6.0,37,0.00,,,0.00,meteohub,2013-04-28 16:57:00,
2013-04-28 13:02:00,65.1,38.8,30.27,WNW,285,3.0,6.0,38,0.00,,,0.00,meteohub,2013-04-28 17:02:00,
2013-04-28 13:07:00,65.1,38.8,30.27,ESE,120,0.0,6.0,38,0.00,,,0.00,meteohub,2013-04-28 17:07:00,
2013-04-28 13:12:00,65.3,38.3,30.27,SE,127,1.0,4.0,37,0.00,,,0.00,meteohub,2013-04-28 17:12:00,
2013-04-28 13:17:00,65.3,39.0,30.27,South,187,1.0,4.0,38,0.00,,,0.00,meteohub,2013-04-28 17:17:00,
2013-04-28 13:22:00,65.1,38.8,30.27,West,262,1.0,5.0,38,0.00,,,0.00,meteohub,2013-04-28 17:22:00,
2013-04-28 13:27:00,65.1,38.8,30.27,SSW,195,0.0,5.0,38,0.00,,,0.00,meteohub,2013-04-28 17:27:00,
2013-04-28 13:32:00,64.9,40.1,30.27,SE,132,0.0,5.0,40,0.00,,,0.00,meteohub,2013-04-28 17:32:00,
2013-04-28 13:37:00,64.9,40.1,30.27,West,277,0.0,5.0,40,0.00,,,0.00,meteohub,2013-04-28 17:37:00,
2013-04-28 13:42:00,64.9,38.7,30.27,SSE,148,1.0,3.0,38,0.00,,,0.00,meteohub,2013-04-28 17:42:00,
2013-04-28 13:47:00,64.6,39.0,30.27,SSW,202,2.0,8.0,39,0.00,,,0.00,meteohub,2013-04-28 17:47:00,
2013-04-28 13:52:00,64.2,38.7,30.27,WSW,243,1.0,8.0,39,0.00,,,0.00,meteohub,2013-04-28 17:52:00,
2013-04-28 13:57:00,63.9,39.7,30.27,SW,228,1.0,8.0,41,0.00,,,0.00,meteohub,2013-04-28 17:57:00,
2013-04-28 14:02:00,63.5,40.6,30.27,SSE,159,1.0,7.0,43,0.00,,,0.00,meteohub,2013-04-28 18:02:00,
2013-04-28 14:07:00,63.1,42.1,30.27,WSW,252,2.0,7.0,46,0.00,,,0.00,meteohub,2013-04-28 18:07:00,
2013-04-28 14:12:00,62.4,42.4,30.27,West,271,4.0,7.0,48,0.00,,,0.00,meteohub,2013-04-28 18:12:00,
2013-04-28 14:17:00,61.7,43.3,30.27,SSW,212,3.0,7.0,51,0.00,,,0.00,meteohub,2013-04-28 18:17:00,
2013-04-28 14:23:00,61.2,44.4,30.27,SW,229,1.0,7.0,54,0.00,,,0.00,meteohub,2013-04-28 18:23:00,
2013-04-28 14:28:00,60.8,45.5,30.27,West,271,2.0,7.0,57,0.00,,,0.00,meteohub,2013-04-28 18:28:00,
2013-04-28 14:33:00,60.3,45.0,30.27,WSW,245,3.0,8.0,57,0.00,,,0.00,meteohub,2013-04-28 18:33:00,
2013-04-28 14:38:00,59.9,45.5,30.27,South,177,0.0,8.0,59,0.00,,,0.00,meteohub,2013-04-28 18:38:00,
2013-04-28 14:43:00,59.7,45.9,30.27,West,266,2.0,7.0,60,0.00,,,0.00,meteohub,2013-04-28 18:43:00,
2013-04-28 14:48:00,59.2,46.6,30.27,SW,217,1.0,7.0,63,0.00,,,0.00,meteohub,2013-04-28 18:48:00,
2013-04-28 14:53:00,58.6,47.3,30.27,SSE,162,2.0,7.0,66,0.00,,,0.00,meteohub,2013-04-28 18:53:00,
2013-04-28 14:58:00,58.1,47.7,30.27,WSW,238,2.0,7.0,68,0.00,,,0.00,meteohub,2013-04-28 18:58:00,
2013-04-28 15:03:00,57.6,48.2,30.27,SSE,155,1.0,6.0,71,0.00,,,0.00,meteohub,2013-04-28 19:03:00,
2013-04-28 15:08:00,57.0,48.7,30.27,SSW,212,0.0,6.0,74,0.00,,,0.00,meteohub,2013-04-28 19:08:00,
2013-04-28 15:13:00,56.7,49.1,30.27,South,175,2.0,6.0,76,0.00,,,0.00,meteohub,2013-04-28 19:13:00,
2013-04-28 15:18:00,56.3,49.5,30.27,WSW,240,0.0,5.0,78,0.01,,,0.01,meteohub,2013-04-28 19:18:00,
2013-04-28 15:23:00,56.3,50.2,30.26,WSW,240,0.0,3.0,80,0.01,,,0.01,meteohub,2013-04-28 19:23:00,
2013-04-28 15:28:00,56.1,50.0,30.26,WSW,240,0.0,3.0,80,0.01,,,0.01,meteohub,2013-04-28 19:28:00,
2013-04-28 15:33:00,56.1,49.6,30.25,South,188,0.0,1.0,79,0.01,,,0.01,meteohub,2013-04-28 19:33:00,
2013-04-28 15:38:00,56.1,50.0,30.25,SW,222,0.0,1.0,80,0.02,,,0.02,meteohub,2013-04-28 19:38:00,
2013-04-28 15:43:00,56.1,50.4,30.25,WNW,283,0.0,2.0,81,0.02,,,0.02,meteohub,2013-04-28 19:43:00,
2013-04-28 15:48:00,56.3,50.2,30.25,SSW,212,0.0,2.0,80,0.02,,,0.02,meteohub,2013-04-28 19:48:00,
2013-04-28 15:53:00,56.5,50.0,30.24,SW,235,0.0,2.0,79,0.02,,,0.02,meteohub,2013-04-28 19:53:00,
2013-04-28 15:58:00,56.7,50.2,30.24,SW,235,0.0,1.0,79,0.02,,,0.02,meteohub,2013-04-28 19:58:00,
2013-04-28 16:03:00,57.0,50.2,30.23,SW,226,0.0,1.0,78,0.02,,,0.02,meteohub,2013-04-28 20:03:00,
2013-04-28 16:08:00,57.4,50.5,30.23,SE,127,0.0,1.0,78,0.02,,,0.02,meteohub,2013-04-28 20:08:00,
2013-04-28 16:13:00,57.6,50.4,30.23,SE,127,0.0,1.0,77,0.01,,,0.02,meteohub,2013-04-28 20:13:00,
2013-04-28 16:18:00,57.9,51.4,30.22,SE,127,0.0,1.0,79,0.01,,,0.02,meteohub,2013-04-28 20:18:00,
2013-04-28 16:23:00,58.3,50.4,30.22,SE,127,0.0,1.0,75,0.01,,,0.02,meteohub,2013-04-28 20:23:00,
2013-04-28 16:28:00,58.5,50.5,30.22,SE,128,0.0,1.0,75,0.01,,,0.02,meteohub,2013-04-28 20:28:00,
2013-04-28 16:33:00,58.6,50.4,30.22,SE,129,0.0,1.0,74,0.01,,,0.02,meteohub,2013-04-28 20:33:00,
2013-04-28 16:38:00,58.6,50.4,30.22,ESE,122,0.0,1.0,74,0.00,,,0.02,meteohub,2013-04-28 20:38:00,
2013-04-28 16:43:00,58.8,50.2,30.22,ESE,122,0.0,1.0,73,0.00,,,0.02,meteohub,2013-04-28 20:43:00,
2013-04-28 16:48:00,58.8,49.5,30.22,East,90,1.0,1.0,71,0.00,,,0.02,meteohub,2013-04-28 20:48:00,
2013-04-28 16:53:00,58.8,49.5,30.21,ESE,115,1.0,3.0,71,0.00,,,0.02,meteohub,2013-04-28 20:53:00,
2013-04-28 16:58:00,58.6,48.9,30.21,East,91,2.0,3.0,70,0.00,,,0.02,meteohub,2013-04-28 20:58:00,
2013-04-28 17:03:00,58.5,49.1,30.20,ESE,119,0.0,3.0,71,0.00,,,0.02,meteohub,2013-04-28 21:03:00,
2013-04-28 17:08:00,58.5,48.7,30.20,ESE,117,0.0,3.0,70,0.00,,,0.02,meteohub,2013-04-28 21:08:00,
2013-04-28 17:13:00,58.5,49.1,30.20,ESE,117,0.0,3.0,71,0.00,,,0.02,meteohub,2013-04-28 21:13:00,
2013-04-28 17:18:00,58.6,48.6,30.20,ESE,119,0.0,2.0,69,0.00,,,0.02,meteohub,2013-04-28 21:18:00,
2013-04-28 17:23:00,58.6,47.7,30.21,ESE,115,0.0,1.0,67,0.00,,,0.02,meteohub,2013-04-28 21:23:00,
2013-04-28 17:28:00,58.6,47.3,30.21,ESE,115,0.0,2.0,66,0.00,,,0.02,meteohub,2013-04-28 21:28:00,
2013-04-28 17:33:00,58.6,48.6,30.20,ESE,114,0.0,2.0,69,0.00,,,0.02,meteohub,2013-04-28 21:33:00,
2013-04-28 17:38:00,58.6,48.2,30.20,ESE,114,0.0,2.0,68,0.00,,,0.02,meteohub,2013-04-28 21:38:00,
2013-04-28 17:43:00,58.5,48.0,30.20,ESE,115,0.0,1.0,68,0.00,,,0.02,meteohub,2013-04-28 21:43:00,
2013-04-28 17:48:00,58.6,47.3,30.20,ESE,103,0.0,1.0,66,0.00,,,0.02,meteohub,2013-04-28 21:48:00,
2013-04-28 17:53:00,58.6,46.9,30.20,ESE,108,1.0,1.0,65,0.00,,,0.02,meteohub,2013-04-28 21:53:00,
2013-04-28 17:58:00,58.6,46.6,30.20,ESE,109,0.0,1.0,64,0.00,,,0.02,meteohub,2013-04-28 21:58:00,
2013-04-28 18:03:00,58.8,47.1,30.19,ESE,109,0.0,1.0,65,0.00,,,0.02,meteohub,2013-04-28 22:03:00,
2013-04-28 18:08:00,58.8,47.1,30.19,East,98,0.0,1.0,65,0.00,,,0.02,meteohub,2013-04-28 22:08:00,
2013-04-28 18:13:00,58.8,47.1,30.19,East,98,0.0,1.0,65,0.00,,,0.02,meteohub,2013-04-28 22:13:00,
2013-04-28 18:18:00,58.8,46.6,30.19,ENE,74,0.0,3.0,64,0.00,,,0.02,meteohub,2013-04-28 22:18:00,
2013-04-28 18:23:00,58.6,46.0,30.19,ESE,117,1.0,3.0,63,0.00,,,0.02,meteohub,2013-04-28 22:23:00,
2013-04-28 18:28:00,58.6,46.0,30.19,ESE,117,0.0,3.0,63,0.00,,,0.02,meteohub,2013-04-28 22:28:00,
2013-04-28 18:33:00,58.6,46.0,30.18,ESE,117,0.0,3.0,63,0.00,,,0.02,meteohub,2013-04-28 22:33:00,
2013-04-28 18:38:00,58.6,46.0,30.18,ESE,118,0.0,3.0,63,0.00,,,0.02,meteohub,2013-04-28 22:38:00,
2013-04-28 18:43:00,58.6,46.0,30.17,ESE,108,0.0,1.0,63,0.00,,,0.02,meteohub,2013-04-28 22:43:00,
2013-04-28 18:48:00,58.6,46.0,30.18,ESE,109,0.0,1.0,63,0.00,,,0.02,meteohub,2013-04-28 22:48:00,
2013-04-28 18:53:00,58.6,46.6,30.17,ESE,109,0.0,1.0,64,0.00,,,0.02,meteohub,2013-04-28 22:53:00,
2013-04-28 18:58:00,58.6,46.9,30.17,ESE,108,0.0,1.0,65,0.00,,,0.02,meteohub,2013-04-28 22:58:00,
2013-04-28 19:03:00,58.5,45.9,30.17,SE,125,0.0,1.0,63,0.00,,,0.02,meteohub,2013-04-28 23:03:00,
2013-04-28 19:08:00,58.5,46.8,30.17,ESE,122,0.0,2.0,65,0.00,,,0.02,meteohub,2013-04-28 23:08:00,
2013-04-28 19:13:00,58.3,45.0,30.17,SE,142,0.0,2.0,61,0.00,,,0.02,meteohub,2013-04-28 23:13:00,
2013-04-28 19:18:00,58.3,44.1,30.17,ESE,115,0.0,2.0,59,0.00,,,0.02,meteohub,2013-04-28 23:18:00,
2013-04-28 19:23:00,58.5,43.7,30.17,ENE,78,2.0,3.0,58,0.00,,,0.02,meteohub,2013-04-28 23:23:00,
2013-04-28 19:28:00,58.5,43.7,30.17,NE,55,4.0,4.0,58,0.00,,,0.02,meteohub,2013-04-28 23:28:00,
2013-04-28 19:33:00,58.5,42.8,30.17,ESE,113,1.0,5.0,56,0.00,,,0.02,meteohub,2013-04-28 23:33:00,
2013-04-28 19:38:00,58.5,42.8,30.17,SE,129,0.0,5.0,56,0.00,,,0.02,meteohub,2013-04-28 23:38:00,
2013-04-28 19:43:00,58.5,42.4,30.17,East,87,4.0,5.0,55,0.00,,,0.02,meteohub,2013-04-28 23:43:00,
2013-04-28 19:48:00,58.5,42.8,30.17,East,94,2.0,4.0,56,0.00,,,0.02,meteohub,2013-04-28 23:48:00,
2013-04-28 19:53:00,58.3,42.6,30.17,ESE,107,0.0,4.0,56,0.00,,,0.02,meteohub,2013-04-28 23:53:00,
2013-04-28 19:58:00,58.3,42.6,30.17,SE,124,0.0,4.0,56,0.00,,,0.02,meteohub,2013-04-28 23:58:00,
2013-04-28 20:03:00,58.1,43.0,30.17,SE,133,2.0,3.0,57,0.00,,,0.02,meteohub,2013-04-29 00:03:00,
2013-04-28 20:08:00,58.1,43.3,30.17,ESE,111,1.0,3.0,58,0.00,,,0.02,meteohub,2013-04-29 00:08:00,
2013-04-28 20:13:00,58.1,43.9,30.17,SE,145,2.0,3.0,59,0.00,,,0.02,meteohub,2013-04-29 00:13:00,
2013-04-28 20:18:00,57.9,43.7,30.17,West,260,0.0,7.0,59,0.00,,,0.02,meteohub,2013-04-29 00:18:00,
2013-04-28 20:23:00,57.9,44.6,30.18,SW,226,1.0,7.0,61,0.00,,,0.02,meteohub,2013-04-29 00:23:00,
2013-04-28 20:28:00,57.9,45.0,30.18,SSE,148,0.0,7.0,62,0.00,,,0.02,meteohub,2013-04-29 00:28:00,
2013-04-28 20:33:00,57.7,44.8,30.18,SE,136,0.0,3.0,62,0.00,,,0.02,meteohub,2013-04-29 00:33:00,
2013-04-28 20:39:00,57.7,44.8,30.19,SE,124,0.0,3.0,62,0.00,,,0.02,meteohub,2013-04-29 00:39:00,
2013-04-28 20:44:00,57.7,45.3,30.19,ESE,120,0.0,2.0,63,0.00,,,0.02,meteohub,2013-04-29 00:44:00,
2013-04-28 20:49:00,57.6,45.5,30.19,SE,142,1.0,2.0,64,0.00,,,0.02,meteohub,2013-04-29 00:49:00,
2013-04-28 20:54:00,57.6,45.9,30.19,NNW,337,1.0,2.0,65,0.00,,,0.02,meteohub,2013-04-29 00:54:00,
2013-04-28 20:59:00,57.6,45.9,30.20,NNW,338,0.0,2.0,65,0.00,,,0.02,meteohub,2013-04-29 00:59:00,
2013-04-28 21:04:00,57.6,45.9,30.20,ENE,68,1.0,3.0,65,0.00,,,0.02,meteohub,2013-04-29 01:04:00,
2013-04-28 21:09:00,57.6,46.2,30.20,WSW,238,0.0,3.0,66,0.00,,,0.02,meteohub,2013-04-29 01:09:00,
2013-04-28 21:14:00,57.6,46.2,30.20,SE,134,0.0,5.0,66,0.00,,,0.02,meteohub,2013-04-29 01:14:00,
2013-04-28 21:19:00,57.4,46.6,30.19,SE,135,0.0,5.0,67,0.00,,,0.02,meteohub,2013-04-29 01:19:00,
2013-04-28 21:24:00,57.4,46.6,30.20,ESE,108,1.0,5.0,67,0.00,,,0.02,meteohub,2013-04-29 01:24:00,
2013-04-28 21:29:00,57.4,46.9,30.19,ESE,105,0.0,4.0,68,0.00,,,0.02,meteohub,2013-04-29 01:29:00,
2013-04-28 21:34:00,57.4,46.9,30.19,SSE,153,1.0,4.0,68,0.00,,,0.02,meteohub,2013-04-29 01:34:00,
2013-04-28 21:39:00,57.2,47.1,30.19,ESE,109,3.0,4.0,69,0.00,,,0.02,meteohub,2013-04-29 01:39:00,
2013-04-28 21:44:00,57.2,47.1,30.19,ESE,119,1.0,4.0,69,0.00,,,0.02,meteohub,2013-04-29 01:44:00,
2013-04-28 21:49:00,57.2,47.1,30.19,East,96,2.0,4.0,69,0.00,,,0.02,meteohub,2013-04-29 01:49:00,
2013-04-28 21:54:00,57.0,46.9,30.19,ESE,120,1.0,4.0,69,0.00,,,0.02,meteohub,2013-04-29 01:54:00,
2013-04-28 21:59:00,57.0,46.9,30.19,SE,133,0.0,3.0,69,0.00,,,0.02,meteohub,2013-04-29 01:59:00,
2013-04-28 22:04:00,57.0,46.9,30.19,SE,133,1.0,4.0,69,0.00,,,0.02,meteohub,2013-04-29 02:04:00,
2013-04-28 22:09:00,56.8,46.8,30.19,SE,142,0.0,4.0,69,0.00,,,0.02,meteohub,2013-04-29 02:09:00,
2013-04-28 22:14:00,56.8,46.8,30.19,ESE,115,1.0,3.0,69,0.00,,,0.02,meteohub,2013-04-29 02:14:00,
2013-04-28 22:19:00,56.8,46.8,30.19,SE,139,0.0,5.0,69,0.00,,,0.02,meteohub,2013-04-29 02:19:00,
2013-04-28 22:24:00,56.7,46.6,30.19,SE,125,3.0,5.0,69,0.00,,,0.02,meteohub,2013-04-29 02:24:00,
2013-04-28 22:29:00,56.7,46.9,30.19,SE,127,1.0,5.0,70,0.00,,,0.02,meteohub,2013-04-29 02:29:00,
2013-04-28 22:34:00,56.7,46.6,30.19,ESE,118,1.0,5.0,69,0.00,,,0.02,meteohub,2013-04-29 02:34:00,
2013-04-28 22:39:00,56.7,46.6,30.20,ESE,109,0.0,5.0,69,0.00,,,0.02,meteohub,2013-04-29 02:39:00,
2013-04-28 22:44:00,56.5,46.4,30.20,East,98,0.0,4.0,69,0.00,,,0.02,meteohub,2013-04-29 02:44:00,
2013-04-28 22:49:00,56.5,46.4,30.20,West,262,0.0,4.0,69,0.00,,,0.02,meteohub,2013-04-29 02:49:00,
2013-04-28 22:54:00,56.5,46.4,30.20,SE,132,0.0,2.0,69,0.00,,,0.02,meteohub,2013-04-29 02:54:00,
2013-04-28 22:59:00,56.5,45.7,30.19,SE,125,1.0,2.0,67,0.00,,,0.02,meteohub,2013-04-29 02:59:00,
2013-04-28 23:04:00,56.5,45.3,30.19,NE,54,0.0,5.0,66,0.00,,,0.02,meteohub,2013-04-29 03:04:00,
2013-04-28 23:09:00,56.3,44.6,30.20,ESE,116,1.0,5.0,65,0.00,,,0.02,meteohub,2013-04-29 03:09:00,
2013-04-28 23:14:00,56.3,45.1,30.20,ESE,115,0.0,6.0,66,0.00,,,0.02,meteohub,2013-04-29 03:14:00,
2013-04-28 23:19:00,56.1,44.6,30.20,ESE,110,1.0,6.0,65,0.00,,,0.02,meteohub,2013-04-29 03:19:00,
2013-04-28 23:24:00,56.1,44.1,30.19,ESE,123,0.0,6.0,64,0.00,,,0.02,meteohub,2013-04-29 03:24:00,
2013-04-28 23:29:00,56.1,44.1,30.19,SE,133,0.0,4.0,64,0.00,,,0.02,meteohub,2013-04-29 03:29:00,
2013-04-28 23:34:00,56.1,44.6,30.19,ESE,113,1.0,4.0,65,0.00,,,0.02,meteohub,2013-04-29 03:34:00,
2013-04-28 23:39:00,55.9,44.4,30.19,SE,126,0.0,3.0,65,0.00,,,0.02,meteohub,2013-04-29 03:39:00,
2013-04-28 23:44:00,55.9,44.4,30.19,SE,127,0.0,2.0,65,0.00,,,0.02,meteohub,2013-04-29 03:44:00,
2013-04-28 23:49:00,55.9,44.4,30.18,SE,141,0.0,2.0,65,0.00,,,0.02,meteohub,2013-04-29 03:49:00,
2013-04-28 23:54:00,55.9,44.4,30.18,ESE,122,0.0,1.0,65,0.00,,,0.02,meteohub,2013-04-29 03:54:00,
2013-04-28 23:59:00,55.8,44.6,30.19,ESE,122,0.0,1.0,66,0.00,,,0.02,meteohub,2013-04-29 03:59:00,